EW1970 Weather Reports


Display with metric or nautical units.
time (UTC)temp
F
wind
direction
speed
MPH
gust
MPH
rain 1hr
in
rain 24hr
in
rain mn
in
humidity
%
barometer
mb
20260507150024 58 73 0.0 4.0 0.00 0.00 0.00 84 1019.7
20260507144506 58 57 1.0 4.0 0.00 0.00 0.00 85 1019.8
20260507143023 58 360 1.0 4.0 0.00 0.00 0.00 86 1019.3
20260507141518 58 292 1.0 8.0 0.00 0.00 0.00 87 1019.3
20260507140022 58 169 0.0 10.0 0.00 0.00 0.00 87 1019.1
20260507134535 58 352 1.0 9.0 0.00 0.00 0.00 88 1018.7
20260507133011 58 311 1.0 9.0 0.00 0.00 0.00 88 1018.9
20260507131521 57 338 1.0 11.0 0.00 0.00 0.00 89 1018.8
20260507130029 57 334 1.0 11.0 0.00 0.00 0.00 89 1018.9
20260507124525 57 346 0.0 10.0 0.00 0.00 0.00 89 1018.7
20260507123028 57 313 1.0 8.0 0.00 0.00 0.00 88 1018.7
20260507121512 58 360 1.0 11.0 0.00 0.00 0.00 89 1018.5
20260507120017 58 42 1.0 4.0 0.00 0.00 0.00 88 1017.7
20260507114529 58 9 2.0 10.0 0.00 0.00 0.00 88 1017.7
20260507113026 58 360 1.0 5.0 0.00 0.00 0.00 88 1017.7
20260507111528 58 48 1.0 8.0 0.00 0.00 0.00 88 1017.9
20260507110017 58 20 1.0 8.0 0.00 0.00 0.00 88 1017.7
20260507104506 58 127 2.0 11.0 0.00 0.00 0.00 88 1017.9
20260507103005 58 272 1.0 8.0 0.00 0.00 0.00 88 1016.8
20260507101517 58 92 1.0 9.0 0.00 0.00 0.00 87 1017.3
20260507100015 58 113 0.0 6.0 0.00 0.00 0.00 88 1017.1
20260507094522 58 98 0.0 7.0 0.00 0.00 0.00 87 1017.7
20260507093004 58 51 0.0 3.0 0.00 0.00 0.00 87 1017.2
20260507091506 58 348 1.0 4.0 0.00 0.00 0.00 87 1017.4
20260507090012 58 96 1.0 6.0 0.00 0.00 0.00 87 1016.7
20260507084529 58 114 0.0 2.0 0.00 0.00 0.00 86 1016.3
20260507083020 58 54 0.0 8.0 0.00 0.00 0.00 86 1016.2
20260507081525 58 238 0.0 2.0 0.00 0.00 0.00 86 1016.6
20260507080011 59 311 0.0 2.0 0.00 0.00 0.00 86 1016.1
20260507074526 59 79 0.0 2.0 0.00 0.00 0.00 85 1015.8
20260507073020 59 166 1.0 5.0 0.00 0.00 0.00 85 1016.0
20260507071525 59 77 0.0 3.0 0.00 0.00 0.00 85 1015.9
20260507070010 59 133 0.0 4.0 0.00 0.00 0.00 84 1015.9
20260507064513 59 89 0.0 4.0 0.00 0.00 0.00 84 1015.7
20260507063017 60 117 0.0 3.0 0.00 0.00 0.00 83 1015.9
20260507061520 60 104 0.0 2.0 0.00 0.00 0.00 83 1015.7
20260507060023 60 74 0.0 2.0 0.00 0.00 0.00 83 1016.3
20260507054511 60 100 1.0 6.0 0.00 0.00 0.00 82 1015.7
20260507053016 60 278 1.0 5.0 0.00 0.00 0.00 82 1015.5
20260507051531 60 5 0.0 6.0 0.00 0.00 0.00 82 1015.5
20260507050024 61 326 0.0 4.0 0.00 0.00 0.00 82 1016.0
20260507044527 61 114 1.0 6.0 0.00 0.00 0.00 82 1015.9
20260507043012 61 61 0.0 9.0 0.00 0.00 0.00 82 1015.9
20260507041518 61 309 1.0 8.0 0.00 0.00 0.00 82 1015.8
20260507040002 61 28 1.0 6.0 0.00 0.00 0.00 83 1015.9
20260507034508 61 42 1.0 6.0 0.00 0.00 0.00 83 1015.7
20260507033011 61 342 0.0 3.0 0.00 0.00 0.00 84 1015.5
20260507031505 61 333 0.0 3.0 0.00 0.00 0.00 84 1015.6
20260507030004 61 187 1.0 8.0 0.00 0.00 0.00 83 1015.3
20260507024504 61 318 1.0 7.0 0.00 0.00 0.00 83 1015.5
20260507023008 61 16 1.0 4.0 0.00 0.00 0.00 83 1015.2
20260507021511 61 351 1.0 10.0 0.00 0.00 0.00 83 1014.8
20260507020003 61 352 0.0 5.0 0.00 0.00 0.00 83 1014.8
20260507014505 61 46 0.0 5.0 0.00 0.00 0.00 83 1014.4
20260507013004 61 352 0.0 8.0 0.00 0.00 0.00 83 1014.0
20260507011512 62 49 0.0 5.0 0.00 0.00 0.00 83 1013.8
20260507010029 62 348 1.0 9.0 0.00 0.00 0.00 83 1013.8
20260507004503 62 323 0.0 4.0 0.00 0.00 0.00 83 1013.4
20260507003011 62 291 2.0 6.0 0.00 0.00 0.00 82 1013.1
20260507001508 62 11 2.0 8.0 0.00 0.00 0.00 82 1013.5
20260507000014 62 302 2.0 8.0 0.00 0.00 0.00 83 1013.0
20260506234520 62 30 1.0 6.0 0.00 0.00 0.00 83 1013.3
20260506233004 62 23 1.0 7.0 0.00 0.00 0.00 83 1013.1
20260506231506 61 352 0.0 3.0 0.00 0.00 0.00 82 1013.0
20260506230014 61 348 1.0 8.0 0.00 0.00 0.00 82 1012.8
20260506224522 61 292 1.0 5.0 0.00 0.00 0.00 83 1013.0
20260506223028 61 103 2.0 7.0 0.00 0.00 0.00 83 1012.8
20260506221506 61 336 1.0 10.0 0.00 0.00 0.00 83 1012.9
20260506220008 61 352 0.0 9.0 0.00 0.00 0.00 82 1012.9
20260506214517 63 55 1.0 9.0 0.00 0.00 0.00 81 1012.8
20260506213019 62 71 1.0 8.0 0.00 0.00 0.00 81 1012.8
20260506211524 63 351 2.0 11.0 0.00 0.00 0.00 80 1012.9
20260506210027 62 284 3.0 10.0 0.00 0.00 0.00 80 1013.1
20260506204510 63 275 2.0 10.0 0.00 0.00 0.00 80 1013.4
20260506203016 64 82 2.0 8.0 0.00 0.00 0.00 79 1013.2
20260506201525 64 29 3.0 12.0 0.00 0.00 0.00 79 1013.1
20260506200029 65 100 2.0 9.0 0.00 0.00 0.00 78 1012.8
20260506194509 66 296 3.0 12.0 0.00 0.00 0.00 79 1012.8
20260506193016 68 319 3.0 10.0 0.00 0.00 0.00 78 1012.6
20260506191518 68 82 3.0 11.0 0.00 0.00 0.00 78 1012.8
20260506190024 70 352 1.0 9.0 0.00 0.00 0.00 78 1012.9
20260506184527 72 325 4.0 11.0 0.00 0.00 0.00 76 1012.5
20260506183014 73 26 3.0 8.0 0.00 0.00 0.00 73 1012.5
20260506181518 72 269 2.0 8.0 0.00 0.00 0.00 77 1012.5
20260506180032 71 167 1.0 5.0 0.00 0.00 0.00 78 1012.4
20260506174525 70 80 1.0 4.0 0.00 0.00 0.00 81 1012.3
20260506173026 68 334 1.0 6.0 0.00 0.00 0.00 82 1012.3
20260506171520 67 5 0.0 6.0 0.00 0.00 0.00 84 1012.3
20260506170020 66 74 1.0 4.0 0.00 0.00 0.00 85 1012.5
20260506164525 64 360 0.0 7.0 0.00 0.00 0.00 88 1012.5
20260506163028 63 49 1.0 4.0 0.00 0.00 0.00 90 1013.2
20260506161528 61 182 1.0 8.0 0.00 0.00 0.00 91 1013.5
20260506160018 61 252 1.0 12.0 0.00 0.00 0.00 90 1014.4
20260506154524 63 85 3.0 11.0 0.00 0.00 0.00 89 1013.7
20260506153039 65 360 5.0 12.0 0.00 0.00 0.00 88 1013.6
20260506151528 66 342 3.0 11.0 0.00 0.00 0.00 87 1012.6